Home > Weather > Arlington > Past weeks

Flag for U.S.A. Weather for the Past 2 Weeks in Arlington, Texas, U.S.A.

Now
75 °F

Sunny.


Feels Like: 76 °F
Forecast: 52 / 73 °F
Wind: 5 mph from North

Location: Arlington Municipal Airport

Current Time: Feb 11, 2016 at 1:57:14 PM

Latest Report: Feb 11, 2016 at 12:53 PM


Visibility: 10 mi

Pressure: 30.07 "Hg

Humidity: 20%

Dew point: 31 °F

Location of ArlingtonLocation

Historic Weather in Arlington — Graph

°F

Arlington Temperature Yesterday

Maximum temperature yesterday: 76 °F (at 4:53 PM)
Minimum temperature yesterday: 31 °F (at 6:53 AM)
Average temperature yesterday: 54 °F

High & Low Weather Summary for the Past Weeks

 TemperatureHumidityPressure
High79 °F (Jan 29, 2:53 PM)89% (Feb 7, 6:53 AM)30.51 "Hg (Feb 7, 6:53 AM)
Low29 °F (Feb 4, 3:53 AM)12% (Feb 8, 3:53 PM)29.50 "Hg (Feb 1, 5:53 PM)
Average52 °F48%30.09 "Hg
* Reported Jan 27 11:53 AM — Feb 11 11:53 AM, Arlington, Weather by CustomWeather, © 2016

Note: Actual official high and low records may vary slightly from our data, if they occured in-between our weather recording intervals... More about our weather records

Advertising

Arlington Weather History for the Previous 24 Hours

 ConditionsComfort  
Time TempWeatherWind HumidityBarometerVisibility
11:53 AM
Thu, Feb 11
73 °FSunny.7 mph20%30.09 "Hg10 mi
10:53 AM70 °FSunny.8 mph22%30.10 "Hg10 mi
9:53 AM64 °FSunny.No wind33%30.10 "Hg10 mi
8:53 AM54 °FSunny.No wind49%30.10 "Hg10 mi
7:53 AM40 °FSunny.3 mph77%30.09 "Hg10 mi
6:53 AM41 °FClear.No wind74%30.07 "Hg10 mi
5:53 AM39 °FClear.3 mph76%30.04 "Hg10 mi
4:53 AM46 °FClear.No wind61%30.03 "Hg10 mi
3:53 AM45 °FClear.6 mph65%30.02 "Hg10 mi
2:53 AM46 °FClear.3 mph63%30.03 "Hg10 mi
1:53 AM53 °FClear.6 mph48%30.02 "Hg10 mi
12:53 AM55 °FClear.5 mph47%30.03 "Hg10 mi
11:53 PM
Wed, Feb 10
57 °FClear.7 mph44%30.03 "Hg10 mi
10:53 PM59 °FRefreshingly cool.6 mph41%30.04 "Hg10 mi
9:53 PM60 °FRefreshingly cool.7 mph38%30.06 "HgN/A
8:53 PM62 °FClear.7 mph35%30.06 "Hg10 mi
7:53 PM65 °FClear.7 mph31%30.07 "Hg10 mi
6:53 PM68 °FClear.7 mph26%30.07 "Hg10 mi
5:53 PM74 °FSunny.8 mph20%30.08 "Hg10 mi
4:53 PM76 °FSunny.14 mph18%30.09 "Hg10 mi
3:53 PM75 °FSunny.14 mph19%30.11 "Hg10 mi
2:53 PM73 °FSunny.15 mph21%30.14 "Hg10 mi
1:53 PM70 °FSunny.14 mph23%30.18 "Hg10 mi
Weather by CustomWeather, © 2016

See weather overviewHow to use our weather pages